Location: ??????
(55.4348°N, 39.2112°E)
Time: 01:32:40
(UTC+00:00)

Meteor 2-10 - Pass Details

Date: 14 April 2024
Orbit: 738 x 866 km, 81.2° (Epoch: 18 May)

Event Time Altitude Azimuth Distance (km) Brightness Sun altitude
Rises 00:26:18 0° 344° (NNW) 3,370 7.7 -14.7°
Reaches altitude 10° 00:28:41 10° 343° (NNW) 2,451 6.9 -14.5°
Maximum altitude 00:34:14 72° 260° (W) 894 4.2 -13.9°
Drops below altitude 10° 00:39:53 10° 177° (S) 2,495 6.3 -13.3°
Sets 00:42:20 0° 175° (S) 3,434 7.0 -13.0°
